Theta_e
335 336 337 336 336 336 336 336 335 335 337 341 344 345 346 346 346 346 346 346 346 346 346 347 346 347 346 344 343 340 336 332 331 331 331 332 332 332 332 332 332 332 333 332 332 332 331 331 330 329 328 328 328 328 327 327 327 326 326 325 325 324 325 324 324 324 324 324 323 323 323 321 321 320 321 321 322 322 322 322 322 322 323 322 322
338 338 339 338 338 337 337 336 335 336 339 342 344 345 346 346 346 346 346 346 347 346 347 347 347 346 345 344 344 344 340 333 329 328 328 329 329 330 330 330 331 332 332 332 330 329 328 327 326 325 325 326 327 327 326 326 325 325 324 323 323 322 322 322 322 321 320 320 321 320 320 320 320 321 321 321 321 322 321 321 321 321 321 321 321
340 340 341 340 339 339 339 338 337 336 338 341 342 344 344 345 346 347 347 347 347 347 347 346 346 345 344 343 342 342 341 338 334 330 327 327 327 327 328 328 328 328 329 329 328 327 326 325 325 325 326 327 327 327 326 326 324 323 322 321 321 321 320 321 320 320 320 320 320 320 320 321 321 321 321 321 321 322 322 322 322 323 324 325 325
342 341 342 342 340 340 339 339 338 338 340 341 341 342 344 345 346 347 347 347 347 347 347 346 345 344 343 343 343 342 341 341 341 336 331 330 328 325 325 325 326 326 326 326 326 325 326 326 327 328 328 327 326 326 324 324 322 322 321 320 320 321 320 320 320 321 321 321 321 321 321 321 321 322 323 324 325 327 329 330 331 332 335 337 338
342 343 343 344 343 341 341 340 339 339 340 342 343 343 344 346 347 347 347 347 347 347 347 346 345 344 343 343 343 343 341 341 343 341 337 335 332 328 325 324 325 325 325 326 327 327 328 328 328 328 326 325 324 323 322 321 321 321 321 321 320 321 321 321 322 322 322 322 322 323 323 325 326 328 330 332 334 337 339 340 342 342 343 344 345
342 343 344 344 345 343 342 341 340 339 339 341 344 345 345 346 346 347 346 347 347 347 347 345 344 344 343 343 343 342 342 341 342 343 342 338 335 333 330 328 328 329 329 329 329 329 327 327 326 325 324 323 322 321 321 321 322 322 322 323 322 322 323 323 323 323 324 326 327 329 331 333 336 338 340 341 342 343 343 344 344 345 344 345 345
342 343 344 345 346 346 345 343 341 340 339 340 343 345 346 345 346 346 346 347 346 346 346 345 345 344 344 344 343 342 343 343 343 343 344 341 337 336 335 334 334 333 333 332 330 327 325 325 324 323 323 322 322 322 323 323 323 323 324 324 324 324 324 325 326 328 330 333 336 338 340 341 342 343 343 344 344 344 344 344 344 344 344 344 344
344 345 346 346 347 347 346 345 343 342 340 340 342 345 346 345 346 347 347 346 346 345 345 345 345 344 343 343 344 344 344 343 343 344 345 343 340 337 336 336 336 337 338 336 331 326 324 322 322 322 323 322 323 323 324 325 326 326 327 327 328 329 330 331 333 335 337 339 341 342 343 343 343 343 343 343 343 344 344 344 344 344 345 345 344
343 345 346 346 345 345 345 345 344 343 341 341 342 345 345 346 347 347 347 346 347 346 345 345 344 344 343 345 345 346 346 345 344 345 345 343 342 341 337 335 336 340 344 343 338 331 323 322 322 322 323 324 324 326 328 330 332 332 334 334 335 336 337 338 339 340 341 342 342 343 342 342 342 342 342 342 343 344 345 346 346 346 346 347 347
342 343 343 343 344 343 343 344 344 342 340 341 342 345 346 346 346 347 347 347 347 347 346 346 346 345 345 347 348 348 348 347 345 343 344 343 343 343 341 339 338 339 344 347 345 339 328 323 323 324 324 326 328 331 334 336 337 338 339 339 339 340 340 340 341 341 341 342 342 342 342 342 341 341 342 344 346 347 348 349 349 349 349 349 350
343 342 342 343 343 342 342 343 344 343 341 341 342 344 346 346 347 347 348 348 348 348 348 348 348 347 347 348 348 348 349 349 345 343 343 343 343 344 345 344 341 339 343 346 347 344 335 327 325 325 326 329 333 336 337 338 338 339 340 340 340 340 340 340 341 341 341 342 342 341 341 341 341 343 346 348 349 350 351 351 352 351 351 351 352
344 344 343 345 344 343 342 343 345 346 344 343 343 344 347 347 347 348 348 349 348 348 348 348 348 348 348 348 348 347 348 348 346 345 344 344 344 345 345 343 341 340 341 345 346 344 341 334 329 327 328 332 336 337 337 339 340 341 342 342 342 341 340 340 339 340 340 340 341 341 341 341 344 347 349 350 350 351 351 351 351 351 351 351 352
346 345 344 344 344 343 343 342 344 345 345 344 344 345 347 347 348 348 349 349 348 348 348 348 348 348 348 347 346 346 346 346 346 346 346 346 345 344 345 343 341 342 343 344 345 341 340 336 330 328 331 333 336 337 340 341 343 345 345 343 340 339 339 338 339 339 340 340 340 341 341 344 348 349 349 349 348 348 349 349 348 348 347 346 345
346 346 344 344 343 343 343 343 344 345 345 344 345 347 348 347 348 348 348 349 349 348 348 348 348 347 347 346 344 344 345 345 345 345 345 346 346 345 345 343 342 344 343 343 342 338 334 332 330 331 333 334 337 339 341 343 345 347 345 341 338 338 337 337 338 339 339 340 341 342 345 347 348 348 348 346 344 343 343 342 341 338 336 333 332
346 346 345 344 343 343 343 343 345 345 345 345 345 346 348 348 348 349 350 349 349 348 347 348 347 347 346 346 345 345 344 344 344 344 343 344 345 344 345 345 342 343 344 341 340 336 330 331 334 335 336 337 339 338 339 342 344 345 342 338 338 340 340 340 339 340 341 342 344 345 346 347 347 346 344 339 335 334 333 332 330 328 325 324 324
345 345 345 344 343 343 343 343 344 346 347 347 345 345 347 348 350 350 350 349 348 348 348 347 346 346 346 346 345 345 344 343 343 342 343 342 343 343 343 344 343 343 343 339 338 338 333 335 340 341 340 339 338 335 338 342 344 341 336 334 339 344 342 342 342 342 343 344 345 345 344 345 345 343 337 332 329 329 327 326 325 324 323 322 322
345 345 345 343 343 343 342 342 344 347 347 346 345 345 347 349 350 349 348 348 348 348 348 346 346 346 347 347 345 345 345 343 342 342 342 341 341 341 342 344 343 342 342 338 338 341 340 342 344 344 343 340 337 336 338 342 343 339 332 331 339 345 343 343 343 342 342 343 343 343 343 344 343 337 332 330 329 327 326 324 324 324 323 323 323
345 345 344 343 343 343 343 343 346 346 345 344 344 345 348 350 349 349 348 348 348 348 347 345 346 347 347 347 346 347 345 343 342 341 342 341 340 340 340 342 342 340 339 339 338 339 342 343 343 344 346 342 337 337 338 340 342 340 332 328 335 343 344 343 343 342 341 340 341 342 344 343 339 334 332 331 329 327 325 324 323 324 323 323 323
346 346 345 343 342 343 343 343 345 345 344 344 344 346 349 349 348 349 348 347 348 348 346 346 346 347 347 347 346 346 345 343 343 341 340 339 339 339 339 341 341 338 338 342 341 339 339 341 343 343 345 345 339 337 337 337 340 339 333 329 331 338 342 341 340 340 339 339 342 344 344 341 336 333 333 331 329 327 326 324 324 324 324 324 324
347 346 346 345 343 343 343 343 343 344 344 344 345 346 348 348 348 348 348 347 347 347 345 346 346 347 347 345 344 345 345 344 343 342 341 340 339 339 339 340 340 338 340 342 342 340 338 338 341 342 345 347 342 337 336 336 336 334 330 330 331 334 336 337 336 336 338 341 342 343 341 338 336 335 334 332 330 328 327 325 325 324 324 324 324
348 346 346 346 345 344 343 343 344 344 344 344 344 346 348 348 347 347 347 346 348 347 345 346 346 346 347 343 342 344 343 343 344 343 344 344 342 341 340 339 340 340 341 342 342 340 338 337 341 342 345 347 344 339 337 338 336 330 328 330 331 333 333 333 335 337 338 339 337 336 336 336 336 335 335 334 332 330 328 327 326 325 325 325 325
347 346 345 346 345 345 344 344 343 344 344 344 345 346 348 348 347 347 347 346 348 347 345 346 346 346 345 342 342 343 342 342 344 344 344 344 344 344 342 340 340 339 340 341 341 339 338 339 341 343 344 346 344 340 336 336 335 330 328 330 331 332 331 331 334 337 337 334 332 332 333 333 335 335 335 336 334 332 331 328 327 326 326 326 325
346 346 345 344 345 345 344 344 344 344 344 344 345 346 347 347 346 346 346 346 347 346 345 345 345 345 344 342 343 345 344 344 344 343 343 343 343 346 345 341 340 340 339 340 340 339 339 340 342 343 345 344 342 342 338 334 333 330 329 331 331 331 330 329 330 333 332 332 330 330 331 331 333 333 335 336 335 334 332 331 329 328 327 327 327
344 346 346 344 344 344 345 344 343 343 344 345 345 346 347 346 344 344 343 344 345 345 345 346 344 345 345 343 344 345 345 344 344 342 342 341 340 343 345 342 341 341 341 341 341 340 338 340 342 344 345 345 343 344 342 334 333 332 331 333 333 331 331 330 329 329 329 329 329 330 330 330 331 332 333 334 334 333 333 333 331 329 328 328 328
343 344 345 345 344 344 345 346 344 344 344 346 346 346 346 343 341 341 341 341 343 343 344 346 345 344 343 343 344 345 346 345 344 342 342 342 341 342 344 343 341 341 342 342 341 340 339 339 343 344 346 347 345 345 343 336 334 334 334 335 336 334 332 333 333 332 331 331 330 330 330 330 330 330 332 333 332 333 332 333 333 331 329 329 329
342 343 345 345 345 345 346 347 346 346 347 348 349 348 346 343 341 340 340 340 340 340 342 344 345 342 342 343 344 345 348 347 345 343 343 343 343 342 343 343 342 342 342 341 340 340 340 339 342 345 347 347 347 346 344 339 337 337 338 339 341 338 336 336 337 338 339 339 337 335 333 331 329 330 330 331 332 332 332 333 334 333 330 330 329
342 343 343 345 345 345 347 348 347 347 348 349 350 347 345 344 343 341 341 340 340 339 340 342 343 342 342 344 345 346 348 348 347 347 346 345 344 345 345 344 344 344 342 339 338 339 340 341 343 347 348 348 347 346 344 343 341 338 338 341 343 342 341 342 343 343 344 345 343 341 339 335 332 330 330 329 330 332 332 332 334 334 332 331 330
343 343 342 342 344 344 346 348 347 347 347 348 350 350 348 347 347 346 343 341 340 340 339 340 340 342 344 345 345 347 348 349 348 348 348 348 347 347 347 346 345 344 343 341 339 338 340 340 343 346 347 347 349 349 347 346 345 342 340 341 342 342 342 345 346 347 349 348 347 345 344 341 336 333 333 330 329 330 331 332 333 335 334 333 331
344 345 344 343 344 343 343 345 346 346 346 346 349 350 350 349 349 348 346 344 343 342 340 339 338 340 343 344 345 346 347 348 348 349 349 349 349 348 348 347 347 345 344 344 342 341 342 341 342 345 347 348 350 351 348 347 348 346 344 343 343 341 341 345 348 349 351 351 348 348 346 346 343 339 338 335 331 330 331 332 333 334 334 334 332
342 344 344 344 345 345 343 344 344 345 345 345 345 347 348 348 348 348 347 346 347 345 342 341 340 339 341 342 343 345 347 348 348 348 348 348 348 348 347 347 347 346 345 345 345 345 347 346 343 346 348 349 351 351 348 349 350 349 348 347 344 341 339 343 347 349 350 351 350 349 348 348 348 345 343 340 335 333 332 333 333 333 333 334 333
340 341 342 342 344 345 345 345 343 343 344 344 343 344 345 345 345 345 345 346 347 345 343 343 342 342 344 345 343 343 345 347 347 347 348 348 348 346 346 346 347 347 346 345 345 346 348 349 348 349 350 350 350 350 348 351 352 350 349 347 347 346 341 340 344 346 348 350 350 351 350 350 351 349 347 345 343 339 336 335 335 334 333 334 335
341 340 340 341 342 342 343 343 342 341 343 343 342 343 344 344 344 343 344 344 344 345 345 344 343 343 344 346 346 345 345 345 344 344 345 347 347 345 347 347 346 346 346 344 343 344 347 348 347 348 348 348 348 347 347 349 350 347 349 350 350 351 347 342 342 343 346 348 350 351 350 350 351 350 349 348 347 345 342 340 339 336 334 335 336
341 341 341 340 339 339 339 340 339 339 340 341 341 342 342 343 343 343 343 344 343 344 345 345 345 343 343 344 346 348 349 347 344 343 343 345 346 346 348 350 348 346 345 343 341 341 343 344 343 342 342 342 341 342 343 345 346 348 352 353 353 353 352 346 345 346 348 348 348 348 350 351 351 350 350 350 350 348 347 345 343 339 336 338 338
342 342 342 341 339 338 337 338 338 337 337 337 339 339 340 340 342 342 343 343 343 343 343 343 344 344 343 342 343 346 349 349 346 343 343 345 347 348 349 349 350 350 349 348 345 342 341 339 337 337 338 339 339 337 340 344 348 350 352 354 354 353 351 347 347 349 350 348 346 347 350 352 351 350 350 350 350 350 349 348 346 342 339 341 341
341 342 343 343 341 339 338 338 337 337 337 336 336 336 336 337 338 340 341 342 343 343 343 342 342 342 343 342 341 343 345 345 343 342 340 342 347 350 349 348 349 350 351 352 350 348 345 340 337 336 338 340 340 338 338 341 344 346 347 348 348 346 345 344 346 348 348 348 346 347 350 353 352 350 349 350 350 350 350 349 348 346 343 343 343
340 340 342 343 343 342 340 339 338 337 336 336 336 334 334 334 335 336 338 340 341 341 341 341 341 341 341 341 341 341 341 342 342 342 341 340 342 347 350 349 348 349 350 351 352 351 350 347 344 343 344 344 343 340 339 339 339 339 339 339 340 341 342 344 346 348 348 348 346 347 350 353 353 351 349 348 348 349 349 350 349 349 347 345 345
340 341 344 344 345 343 340 337 336 336 335 335 334 333 332 333 334 334 335 336 337 337 338 338 339 340 340 341 342 341 340 339 339 340 340 340 340 342 346 347 347 348 350 350 350 350 351 350 349 348 349 347 345 342 342 341 338 336 335 336 340 343 345 346 348 349 350 350 348 349 352 354 355 353 350 348 347 347 348 350 350 350 349 348 347
344 345 346 347 347 345 341 338 336 335 335 334 333 332 331 331 332 333 333 333 334 334 334 334 333 334 335 336 338 339 338 337 336 337 337 338 340 340 341 342 344 347 348 349 350 350 350 350 350 349 348 348 346 343 341 342 341 336 334 335 338 341 346 349 349 349 351 352 352 352 353 355 354 354 350 346 345 346 348 349 349 349 350 350 349
349 348 347 347 347 347 344 342 339 336 335 334 333 332 331 330 330 331 331 330 332 332 332 331 330 330 330 330 331 332 333 332 332 332 333 335 337 337 338 339 340 342 344 345 347 348 349 349 349 348 347 346 344 341 338 339 339 336 336 337 336 336 343 350 351 351 352 354 354 354 354 354 354 351 345 339 338 340 344 345 346 347 349 350 350
350 348 347 346 346 346 345 344 343 341 339 336 334 332 330 329 328 328 327 327 328 328 328 328 328 328 328 328 327 327 327 328 327 327 329 334 339 341 341 342 342 342 342 342 342 343 343 344 344 345 343 343 340 339 337 337 336 335 337 340 339 335 341 349 350 351 352 352 353 355 355 354 352 346 338 332 332 335 339 341 342 345 348 351 350
349 349 348 348 347 345 344 344 345 345 343 342 339 336 333 331 329 328 326 325 325 325 326 326 326 326 326 326 326 326 325 325 326 326 328 333 341 345 345 345 345 345 344 343 343 342 341 342 341 340 340 340 338 337 336 335 335 336 337 341 340 337 340 344 344 345 347 348 350 351 351 348 343 335 331 330 331 333 336 338 341 345 348 350 351
348 348 349 349 349 347 345 344 344 345 345 344 343 341 340 338 336 334 332 330 327 326 325 325 325 325 325 325 325 325 325 326 326 327 327 329 335 341 344 345 346 345 346 345 345 344 343 343 341 340 341 339 336 334 333 331 331 333 334 336 338 337 336 338 338 340 343 346 346 343 338 335 330 328 328 328 329 332 335 338 342 346 348 350 351
348 347 348 348 349 349 348 346 345 345 345 344 344 343 342 342 342 341 340 338 336 334 330 328 326 325 326 326 326 325 325 326 325 325 326 327 329 334 339 342 342 341 341 342 343 344 344 343 341 340 341 339 336 334 332 330 329 330 330 331 333 334 336 338 340 341 343 344 342 336 331 329 327 325 326 326 327 331 335 339 343 345 348 349 350
348 347 348 348 348 348 349 348 346 346 345 345 345 345 344 344 343 343 343 342 341 340 338 335 331 328 326 326 326 326 326 326 326 325 327 327 327 330 335 339 340 339 339 340 341 342 343 343 342 340 340 339 338 336 334 332 332 333 333 332 332 332 334 337 340 342 342 341 340 336 333 331 328 325 325 324 325 329 337 342 345 346 348 349 349
349 348 349 349 347 346 348 349 348 347 345 344 344 345 345 345 344 344 344 343 343 343 342 341 340 337 334 332 329 329 327 327 327 327 327 327 327 328 330 333 336 337 338 340 341 341 342 342 343 342 339 339 339 336 333 333 336 338 337 337 336 336 337 339 339 339 339 339 339 337 333 330 330 329 326 325 324 326 334 341 344 346 347 349 349
350 349 350 351 350 347 347 348 349 348 346 344 344 343 344 345 345 345 345 345 345 345 344 343 344 344 343 343 341 338 336 335 334 332 331 330 329 328 328 330 331 332 333 336 337 337 338 338 339 339 337 337 337 333 332 335 339 340 340 340 342 342 342 341 339 337 336 336 338 340 336 331 331 331 330 328 327 325 327 333 337 341 346 349 350
353 351 350 351 352 350 348 347 347 346 346 345 344 344 343 343 344 345 345 346 346 346 346 346 346 346 346 346 346 346 345 344 343 342 342 340 336 334 332 333 335 335 335 335 335 334 334 333 334 334 332 332 333 332 333 337 340 341 341 343 345 345 345 344 342 338 335 333 334 338 336 331 329 332 331 330 330 328 326 326 329 333 341 348 350
354 353 352 352 353 353 352 350 348 347 346 345 345 345 344 344 344 344 346 347 346 347 347 347 348 348 348 348 347 347 347 347 347 347 347 347 345 342 341 339 340 340 340 340 340 339 339 339 338 337 336 335 336 336 337 339 341 342 344 344 345 345 345 346 342 336 333 332 332 333 334 332 331 332 332 331 331 330 327 326 327 331 339 346 348
352 353 353 352 353 353 353 352 351 350 349 347 346 345 346 347 347 346 345 346 346 346 346 346 347 348 348 348 348 348 348 347 348 348 348 348 348 347 346 345 345 344 345 345 344 344 344 344 344 343 343 342 342 341 341 342 343 344 346 346 346 345 347 348 344 338 336 336 335 336 338 335 332 332 334 335 333 332 330 328 328 331 338 344 346
350 352 352 352 352 352 352 352 352 352 352 351 348 347 347 349 350 349 349 348 348 348 347 347 348 348 348 348 348 349 348 348 348 348 348 349 348 349 348 348 348 348 348 348 348 348 347 346 346 347 346 347 347 346 346 346 346 346 348 348 346 347 349 349 347 346 345 341 337 337 339 336 334 336 338 339 338 336 334 331 327 330 336 342 345
349 350 351 351 352 352 352 352 352 353 353 353 351 349 348 348 349 351 352 351 351 350 349 348 348 348 348 349 349 349 349 349 348 348 349 349 349 349 349 349 349 350 350 349 349 349 349 348 348 349 348 349 350 349 349 349 349 349 349 349 348 349 350 350 349 349 349 341 333 336 340 338 338 340 341 342 343 341 336 333 330 330 333 337 342
Wind_Speed
18 19 19 19 18 19 19 19 18 17 16 16 17 17 15 14 13 13 12 11 10 9 9 9 8 6 3 6 8 8 9 8 8 8 7 7 7 6 6 6 6 5 5 4 4 3 3 2 2 2 2 2 3 3 4 4 4 4 4 3 4 4 4 5 5 5 5 6 6 7 7 7 8 8 8 8 8 8 8 8 8 7 7 7 6
17 17 17 17 17 16 17 17 17 17 16 16 17 15 13 12 13 13 12 11 9 9 9 8 7 5 3 5 6 7 8 8 7 7 7 6 5 5 5 5 5 4 4 4 3 3 3 2 3 3 4 4 4 4 5 5 5 4 5 5 5 5 6 6 6 6 7 7 7 7 8 8 8 8 9 9 8 9 9 9 9 8 8 8 8
15 16 16 15 15 15 15 15 15 16 16 15 15 13 12 12 13 14 13 12 10 9 8 7 6 5 5 6 7 9 9 9 8 6 7 7 6 4 4 4 4 4 4 3 3 3 3 3 4 5 5 5 5 5 6 6 5 5 6 6 7 6 7 7 7 7 7 7 8 8 8 8 9 9 9 9 9 9 9 9 9 9 9 9 9
14 14 14 14 14 14 14 14 14 15 14 14 13 13 13 13 14 14 12 11 9 9 8 7 5 5 6 7 8 8 9 10 9 7 6 6 6 6 5 5 5 5 4 4 4 4 4 5 5 6 6 6 6 6 6 6 6 7 7 7 7 7 7 7 7 7 7 8 8 9 9 9 9 10 10 10 10 10 10 10 9 9 9 9 9
13 13 13 13 13 13 13 14 14 14 13 13 13 13 14 14 14 13 11 10 10 9 8 8 7 6 6 6 6 6 6 8 9 8 7 5 5 6 7 8 7 7 7 7 6 6 6 6 6 7 7 7 7 7 7 8 8 8 8 7 7 7 7 7 7 8 8 9 9 9 10 10 10 10 10 10 10 10 10 10 9 9 9 9 9
12 12 12 12 12 12 12 13 13 13 13 13 13 13 13 13 13 13 12 11 11 10 8 7 7 5 4 4 4 4 4 5 6 7 7 5 3 5 8 10 9 9 8 8 8 7 7 7 7 8 8 8 8 9 9 9 9 8 8 8 7 7 8 8 8 9 9 10 10 11 11 11 10 10 10 10 10 10 10 10 10 10 10 10 9
12 12 12 11 11 11 11 11 12 12 13 13 13 13 13 13 13 13 11 11 11 10 9 7 6 5 3 1 2 2 3 4 4 5 6 5 3 3 6 8 8 9 8 8 7 8 8 8 8 8 9 9 9 9 9 9 9 9 9 8 8 8 9 9 9 9 10 10 11 11 11 10 10 10 10 10 11 11 11 12 12 12 12 12 12
12 12 11 10 10 10 10 10 11 12 13 13 13 12 12 13 13 12 11 10 10 9 8 7 6 5 4 2 1 1 2 2 2 3 5 4 4 4 5 7 9 10 10 10 8 8 9 9 9 9 9 9 10 10 10 10 9 9 9 9 9 9 9 9 10 10 10 10 10 10 11 11 11 11 11 11 12 12 13 13 14 14 14 14 13
12 12 11 9 9 10 9 10 11 11 13 13 13 13 13 13 12 11 11 11 10 9 8 7 7 6 5 5 5 4 3 4 3 1 3 4 5 6 6 7 8 9 10 11 11 9 8 9 9 8 9 10 10 10 10 10 10 10 10 9 9 9 9 10 10 10 10 10 10 11 11 12 12 12 12 12 13 13 13 13 14 15 15 15 14
10 11 11 10 9 9 9 10 11 12 13 13 13 13 13 13 12 12 12 11 10 9 8 8 7 6 6 6 6 6 5 5 2 1 2 3 5 7 8 6 5 5 8 10 11 10 8 8 8 8 9 9 10 9 9 9 9 10 9 9 9 9 10 10 10 10 11 11 11 12 12 13 13 13 13 13 13 13 13 13 13 14 14 14 14
9 9 9 9 9 9 9 10 11 11 12 12 12 12 12 13 13 13 12 12 10 9 8 7 6 6 4 2 4 5 5 6 4 1 2 4 4 6 7 7 6 5 6 8 10 10 9 9 9 8 8 8 8 8 8 8 8 9 9 10 10 10 10 11 11 11 11 12 12 13 13 14 14 14 13 13 13 12 12 13 13 13 14 14 14
10 9 9 9 9 10 10 10 10 10 11 11 11 12 12 13 14 14 13 12 11 10 9 7 6 5 3 1 3 4 4 6 6 4 3 3 3 3 4 5 6 6 6 7 8 9 10 10 9 7 7 7 7 7 7 7 8 9 10 11 11 11 11 11 11 11 11 11 12 12 13 13 13 13 13 13 13 13 13 13 13 14 15 15 15
11 10 10 9 10 11 10 11 11 10 10 11 11 12 13 13 13 13 13 12 10 10 9 7 6 6 4 1 2 4 4 5 6 6 5 3 2 0 2 4 5 7 7 7 7 8 9 10 10 7 5 5 6 7 7 8 9 11 12 13 12 11 11 10 10 9 9 9 10 11 11 11 12 12 13 13 13 13 13 13 13 14 14 14 15
11 10 11 11 11 12 12 12 12 11 11 11 12 13 14 14 12 12 11 11 9 9 9 8 7 5 4 2 2 3 5 5 6 7 7 6 5 3 1 1 3 6 7 7 7 9 10 10 10 8 5 5 6 7 8 10 11 12 13 14 13 11 10 9 8 8 7 8 8 9 9 10 11 12 14 14 14 13 13 12 12 12 13 13 14
11 10 11 11 11 12 13 13 13 12 12 12 13 14 14 12 11 10 10 9 9 9 8 7 7 6 5 3 2 2 3 4 5 6 7 7 6 4 3 2 2 4 4 5 7 8 9 10 9 8 6 5 6 7 9 11 12 13 14 14 13 10 9 7 7 6 6 7 7 7 8 10 11 13 14 15 14 13 12 11 11 12 12 13 14
10 10 12 12 12 12 14 14 14 12 12 12 13 13 12 11 11 10 9 9 8 7 7 7 7 6 4 1 1 3 4 4 4 4 5 7 7 5 3 2 2 2 2 4 6 7 8 8 8 9 9 7 7 9 12 13 14 15 14 13 11 9 7 6 6 6 6 7 7 8 9 10 11 13 14 14 13 12 11 11 11 11 12 13 14
9 9 11 12 12 13 14 14 13 12 12 12 12 12 12 11 11 9 8 8 7 6 6 7 6 4 1 2 2 4 4 4 4 3 4 6 6 6 4 3 4 3 2 2 5 6 6 6 7 9 10 9 9 11 12 13 15 16 14 12 10 7 6 6 6 6 7 8 8 8 9 10 11 12 12 13 12 11 11 11 11 11 12 12 14
9 9 10 12 13 13 13 14 13 11 12 13 12 12 11 11 10 9 8 8 7 6 6 6 6 3 2 1 1 3 4 3 3 3 2 3 4 5 4 3 3 3 3 1 3 4 3 3 5 8 10 11 12 12 12 13 14 15 14 13 11 7 6 6 6 7 7 8 8 8 9 9 10 10 11 11 11 11 11 11 11 11 12 13 14
10 10 10 11 13 13 13 13 13 13 13 13 12 12 11 11 11 9 8 8 7 5 5 6 6 4 3 1 2 3 3 2 1 2 1 2 3 3 2 3 3 2 3 1 1 2 1 2 3 5 8 11 12 13 12 12 13 13 13 13 11 7 6 6 6 7 7 8 8 8 8 9 9 9 10 10 11 11 11 11 11 11 12 13 14
9 10 10 10 12 14 14 14 14 14 14 13 13 12 13 13 12 10 9 8 6 5 4 6 7 5 3 2 1 0 0 1 2 2 2 2 2 2 2 4 4 3 3 3 1 0 0 3 5 4 6 10 12 14 13 11 11 11 11 12 11 8 6 6 7 7 7 8 8 8 8 8 9 9 10 10 10 11 11 11 11 11 12 14 15
9 9 9 10 12 13 14 14 14 15 14 13 13 13 14 14 12 11 10 8 6 5 5 6 7 6 4 2 3 3 2 2 1 2 2 3 1 2 5 8 8 6 5 5 4 2 0 3 4 3 5 9 12 14 14 12 10 10 10 11 11 8 7 8 8 8 8 9 9 9 9 9 9 9 10 11 11 11 11 11 11 12 13 14 15
10 9 10 11 12 12 13 14 14 15 14 13 13 13 13 13 11 11 11 9 8 7 7 7 7 7 6 4 4 2 1 2 1 2 1 2 3 3 5 10 10 8 7 6 4 3 1 1 1 4 7 10 12 14 15 12 9 8 9 11 11 10 10 11 11 9 9 10 10 11 11 10 10 10 11 11 11 11 11 11 12 12 13 14 16
10 9 9 10 11 12 12 12 13 14 14 13 13 12 11 11 9 10 12 11 10 9 9 9 7 8 8 6 4 3 2 0 1 1 1 2 3 4 4 9 10 8 7 5 4 4 3 2 3 6 8 10 11 14 15 11 8 7 8 10 12 11 11 12 12 11 10 11 12 12 13 12 12 12 12 12 12 12 12 12 13 13 14 15 16
11 10 10 10 11 12 12 12 12 13 13 13 12 12 10 9 9 9 10 11 11 11 11 10 7 8 10 8 7 5 2 3 2 1 1 2 4 2 2 6 9 8 6 4 5 6 5 3 5 7 8 10 11 13 14 9 6 6 7 10 11 11 11 11 13 13 13 13 14 14 14 14 13 13 13 13 14 14 14 14 14 14 15 15 16
12 11 10 10 10 12 12 11 11 11 12 12 11 12 11 10 10 9 9 10 11 11 12 10 7 8 11 11 9 6 3 5 4 3 3 2 4 3 1 3 7 8 6 5 6 7 7 6 6 8 8 9 11 12 12 7 4 6 8 10 11 11 10 11 12 13 14 15 16 16 16 15 15 14 14 14 15 15 16 16 16 15 15 15 16
12 11 11 10 10 10 10 10 10 11 12 12 11 11 11 11 10 9 9 9 11 11 11 11 9 10 12 11 10 7 2 3 5 5 4 5 6 6 4 3 5 7 8 8 8 9 9 9 8 8 8 8 9 11 9 6 5 6 8 11 12 12 10 10 11 12 14 16 17 18 18 17 16 15 14 14 15 16 17 17 16 16 15 15 16
12 12 11 11 10 10 10 10 10 11 12 12 11 11 11 11 9 10 10 10 11 11 11 11 11 13 13 11 11 8 4 3 3 3 3 4 5 5 5 4 5 7 9 9 10 10 10 9 9 9 8 7 8 8 7 6 8 8 9 11 13 12 11 10 11 12 14 16 18 18 19 18 18 17 16 15 15 16 17 17 17 16 16 15 16
12 13 12 11 11 11 10 10 10 11 11 11 11 11 10 9 9 9 9 10 11 11 11 11 12 14 14 13 12 10 7 6 4 2 1 2 3 5 6 7 7 8 9 10 10 11 10 10 10 10 9 6 6 7 7 9 10 10 11 13 13 13 12 10 11 12 14 16 17 18 19 19 18 18 17 16 16 16 17 17 18 17 16 16 16
12 13 12 12 13 12 10 9 10 11 11 11 11 11 10 10 10 9 9 10 11 10 11 11 11 13 14 14 13 12 11 9 6 5 5 4 5 7 9 10 10 10 10 10 9 9 9 9 11 11 8 5 5 5 7 9 10 11 13 14 15 15 14 12 11 12 13 15 17 18 18 19 18 18 18 17 17 17 17 17 18 18 17 17 16
12 12 12 13 13 12 10 9 10 11 11 11 11 11 11 12 11 11 10 10 11 11 11 11 10 11 13 14 14 14 13 11 10 8 8 8 8 9 10 12 13 13 12 11 10 7 6 7 10 10 9 7 6 6 7 8 9 11 14 15 16 16 16 13 12 13 13 14 16 17 18 19 19 19 18 17 17 17 17 17 18 19 19 18 18
13 12 12 12 12 12 11 11 11 11 11 11 11 11 11 12 12 11 11 11 11 11 11 10 10 10 10 11 12 14 15 15 13 12 11 11 11 11 11 12 14 14 13 13 13 10 7 6 7 8 9 8 7 7 8 7 8 12 14 15 16 16 17 15 13 14 14 15 16 17 18 19 19 20 19 18 16 17 18 18 18 19 19 19 19
14 13 13 12 12 11 11 11 12 12 12 12 11 12 12 12 12 11 11 12 12 11 10 10 10 10 10 11 11 12 14 15 15 15 14 14 13 12 10 10 12 14 13 13 14 14 11 9 8 8 9 10 9 10 10 8 9 12 14 15 16 17 18 16 14 15 16 16 16 17 18 18 19 20 20 19 17 17 18 19 19 19 19 20 20
15 14 14 13 13 12 12 12 12 12 13 13 12 12 12 12 12 12 12 12 12 10 10 10 11 11 11 12 12 12 12 13 13 14 15 15 14 12 9 7 9 12 13 13 15 16 16 14 12 11 11 12 12 12 13 12 11 12 12 14 16 18 19 18 16 16 17 17 17 17 17 18 19 19 20 20 18 17 18 19 20 19 18 20 22
17 16 15 15 14 14 13 13 12 12 13 13 13 13 13 13 13 13 13 13 13 12 12 12 11 11 12 13 13 13 13 14 13 12 13 15 14 13 10 7 7 9 11 12 13 14 16 16 15 14 13 13 13 13 13 13 13 13 13 15 18 20 21 20 17 16 18 18 18 17 17 18 18 19 19 19 19 19 19 20 21 19 18 20 23
17 18 17 16 16 16 15 14 13 14 14 13 13 14 14 14 14 14 14 14 14 13 13 13 12 12 12 13 13 12 13 13 13 11 11 13 15 15 13 10 9 9 10 11 13 13 14 15 15 15 14 14 14 13 13 14 15 16 17 18 20 21 21 19 17 17 18 20 19 18 17 18 18 19 20 20 20 20 20 20 21 21 19 20 22
17 17 17 16 16 17 16 15 15 15 16 15 14 15 15 14 14 14 15 15 15 15 14 13 13 13 13 14 13 13 13 13 12 11 11 12 14 16 16 14 13 12 11 12 13 14 15 16 16 16 16 16 15 14 14 16 17 17 18 18 18 18 16 16 16 17 18 19 19 18 17 17 18 19 20 21 20 20 20 21 22 22 21 21 21
17 17 17 17 17 17 17 16 15 16 17 17 17 16 16 15 15 14 15 16 16 16 15 14 14 14 14 15 14 14 14 14 13 13 12 12 13 15 17 18 17 16 15 13 13 14 15 18 19 19 19 20 20 18 18 20 19 18 17 17 16 15 14 15 16 17 17 17 17 16 17 17 18 19 20 21 21 21 21 22 22 22 22 21 21
19 18 18 18 18 18 17 16 16 16 17 18 18 17 16 15 15 15 15 16 17 17 17 16 15 15 15 16 15 15 16 16 16 15 14 14 14 14 15 16 17 19 19 18 17 16 17 19 21 22 23 23 23 22 21 20 18 18 18 17 15 15 15 16 18 18 17 17 16 16 16 17 18 20 21 21 21 21 21 22 22 22 21 20 20
21 20 20 20 20 20 19 17 17 16 16 17 18 18 17 16 16 16 15 16 17 17 17 17 16 16 16 15 15 15 16 17 17 16 15 14 14 14 13 12 13 15 17 19 19 20 21 22 24 24 24 23 23 22 20 18 18 18 18 18 18 17 16 16 17 18 17 18 18 17 17 18 20 21 22 22 21 21 21 22 23 22 20 19 19
24 22 21 20 21 22 22 21 19 17 17 17 17 18 19 19 18 18 18 17 17 18 18 18 18 18 17 16 16 16 16 17 17 17 15 13 12 12 12 12 12 13 14 15 16 18 20 22 23 23 23 22 21 20 19 18 19 18 18 19 21 20 17 16 16 17 18 18 19 18 19 20 21 22 23 23 21 21 21 22 22 20 18 17 18
25 25 24 23 22 22 23 23 22 20 20 19 18 17 18 19 19 20 20 20 20 20 20 20 20 20 20 19 19 18 18 18 18 17 15 13 12 13 14 15 16 17 18 18 18 18 19 20 21 21 22 22 21 21 21 19 19 19 19 20 21 20 18 18 17 18 19 19 18 18 19 20 21 23 23 22 21 21 21 21 20 18 17 16 17
25 26 26 27 27 26 24 24 24 24 23 21 19 18 17 17 17 18 19 21 21 22 22 22 22 21 21 21 21 20 20 20 19 19 17 15 14 15 16 17 18 19 21 21 21 21 22 22 23 23 23 24 23 22 23 22 21 21 21 21 22 21 20 20 19 19 19 18 19 20 20 21 23 24 22 21 20 21 20 18 17 17 17 17 17
25 25 25 26 29 29 28 27 27 27 26 25 23 21 19 18 18 18 18 19 20 22 23 25 25 24 23 22 22 22 22 22 22 22 21 19 18 17 17 18 19 20 21 23 23 24 24 25 25 25 25 26 24 23 23 23 23 23 24 23 23 23 22 21 21 21 20 20 23 25 24 24 25 24 22 20 20 19 16 15 15 16 17 17 17
26 25 23 23 25 28 30 30 29 29 28 27 27 25 24 22 21 21 21 20 19 20 21 22 24 26 26 26 25 25 24 24 24 24 24 23 22 21 21 21 21 21 22 24 26 26 27 28 29 28 28 27 26 25 24 25 24 25 25 25 25 25 25 24 23 23 23 24 26 27 27 26 26 25 22 20 20 18 15 13 15 16 17 17 18
28 26 24 22 22 25 28 31 32 31 30 29 28 27 27 26 24 23 23 23 23 22 21 20 20 21 23 24 25 25 24 24 25 26 26 26 26 26 25 25 25 25 26 26 26 26 27 29 31 31 30 29 29 28 27 27 27 27 28 27 27 28 28 27 27 26 26 26 27 28 29 28 25 25 24 21 19 18 16 14 15 16 17 17 17
28 28 26 24 23 24 26 29 32 33 33 32 30 28 28 27 26 25 24 24 26 26 25 24 22 20 20 20 21 21 21 22 23 24 25 27 27 28 28 27 27 27 27 28 28 28 28 29 31 32 31 30 31 30 28 28 29 29 29 29 29 30 30 30 30 29 28 28 28 30 31 28 25 26 25 23 21 20 18 17 16 16 17 16 16
27 28 28 27 26 26 26 27 29 32 33 34 33 32 30 28 27 27 27 26 26 27 27 27 26 25 23 22 22 21 20 20 20 21 22 24 26 27 28 28 27 27 28 28 29 29 30 31 32 33 32 31 30 30 29 29 30 30 29 30 30 30 31 31 32 31 31 30 30 31 33 29 26 27 27 24 23 22 20 19 18 17 16 15 15
23 25 27 27 27 28 29 29 29 30 32 33 34 34 32 30 28 28 28 28 27 27 28 28 28 27 27 26 26 25 24 23 22 21 22 23 25 27 28 29 29 30 31 31 30 30 30 31 32 32 32 31 31 31 30 29 30 30 29 30 28 27 29 31 31 30 28 27 26 29 32 29 26 27 27 25 24 22 20 19 19 17 15 15 15
20 22 24 25 26 28 29 30 31 32 32 33 33 33 32 30 29 29 29 29 29 30 31 30 30 30 30 30 30 30 29 28 26 25 25 25 27 28 29 30 31 33 34 33 33 33 33 34 34 34 34 33 32 32 30 29 29 29 29 30 27 25 27 29 29 27 25 24 22 24 28 28 24 24 26 25 24 23 21 20 19 17 15 15 16
19 20 21 23 24 26 27 29 31 33 34 33 34 34 33 31 29 29 29 30 32 33 34 34 34 34 34 34 33 33 33 32 30 29 28 29 30 31 31 32 33 35 35 34 34 34 35 36 36 36 36 35 34 33 31 29 28 27 29 30 27 25 26 29 29 28 27 26 22 21 25 27 24 23 24 25 25 24 21 19 18 16 15 16 17
18 18 19 20 21 22 24 26 28 29 31 32 32 34 35 35 33 32 31 33 34 36 37 38 38 38 39 39 38 38 38 37 34 32 31 31 33 34 34 35 37 38 36 35 35 36 36 37 38 37 37 36 35 34 33 31 29 28 30 30 27 26 27 28 28 29 30 29 23 21 25 28 26 24 23 25 27 25 22 19 17 17 17 17 18
Wind_Direction
141 138 136 136 136 137 137 139 141 143 142 140 141 142 140 138 137 136 132 130 130 130 126 123 122 127 101 75 80 81 79 79 81 86 90 95 100 103 107 107 106 102 100 96 91 87 79 75 66 57 48 39 38 34 33 29 28 28 29 34 39 41 38 32 26 18 15 13 12 11 9 8 7 6 9 9 6 6 6 4 2 2 358 351 346
144 141 139 137 138 139 139 139 142 146 146 148 150 150 146 141 140 137 132 131 131 130 127 127 132 136 104 73 81 83 81 77 76 80 83 89 96 104 109 109 108 102 99 94 82 78 71 68 61 59 58 55 52 47 47 45 41 43 44 46 44 40 38 34 29 25 23 21 20 18 15 14 11 9 9 8 5 6 4 2 1 359 357 354 351
145 142 140 141 143 144 143 141 142 147 149 153 155 155 153 146 144 140 135 133 132 131 128 128 133 128 101 82 83 86 87 79 69 72 76 78 81 93 110 107 108 105 98 89 77 71 67 69 68 68 67 62 60 54 54 52 48 47 46 43 40 37 37 34 31 29 25 24 23 20 18 14 11 9 7 7 5 6 5 3 2 0 1 1 359
144 142 141 142 146 148 147 145 145 147 147 149 152 153 154 151 147 144 142 140 141 141 137 134 130 116 100 88 83 80 82 76 64 65 71 70 69 77 97 103 101 98 94 88 80 76 73 74 74 72 70 64 61 59 58 56 51 47 42 38 34 32 33 34 32 30 26 25 22 19 18 14 12 10 8 9 9 9 9 7 4 3 5 6 4
146 145 144 144 149 151 149 150 150 148 146 146 149 151 152 152 149 148 151 152 155 156 149 142 137 119 95 75 71 63 63 68 61 58 54 56 70 76 85 91 93 92 92 89 83 80 76 74 73 69 67 65 63 62 60 57 53 47 41 36 33 30 32 34 32 29 27 25 23 20 19 16 15 14 12 11 9 7 6 3 0 358 358 359 357
154 152 151 150 150 148 148 152 150 148 149 148 149 150 149 150 152 152 156 161 164 166 163 152 146 137 108 62 56 51 40 47 48 48 41 44 75 87 88 87 88 89 88 85 80 78 75 72 70 67 65 65 64 62 60 57 53 48 42 36 32 30 30 29 29 28 28 27 26 24 22 20 16 14 11 7 2 359 355 351 348 345 344 342 340
163 157 152 153 151 147 148 150 148 150 153 155 156 155 154 154 156 155 159 166 167 170 174 175 177 171 155 75 51 48 30 24 26 41 41 43 66 95 100 94 89 87 83 79 79 78 73 71 70 69 69 67 65 63 60 57 53 47 42 37 33 30 29 28 28 29 29 29 28 26 22 18 14 8 3 357 352 348 343 340 336 334 332 329 328
165 157 155 159 157 153 154 151 150 156 159 160 163 163 163 162 160 161 164 165 163 165 166 173 187 183 167 160 159 311 329 343 348 28 42 55 78 83 107 109 94 86 79 71 74 80 74 71 72 72 72 70 66 64 60 57 53 49 44 40 36 33 31 29 30 29 28 27 24 21 17 11 5 359 353 347 343 339 334 331 327 324 321 319 317
166 162 165 167 160 155 159 159 156 161 163 164 166 167 168 168 166 165 165 164 165 165 157 155 170 183 182 179 187 215 256 274 282 337 54 80 99 90 103 117 99 81 74 68 67 72 74 71 72 74 75 74 70 66 62 59 56 53 48 44 39 35 32 28 26 24 21 19 15 11 6 0 355 349 343 338 334 330 326 322 319 315 312 309 307
171 165 164 163 161 162 165 166 161 161 164 165 169 171 171 170 169 167 164 165 168 169 164 156 157 169 172 175 189 198 216 245 263 125 111 111 112 100 98 105 99 77 68 66 62 62 67 66 67 74 77 77 75 71 68 64 59 53 46 39 33 26 23 20 17 14 11 9 5 2 356 350 345 339 334 331 327 324 321 318 315 311 307 305 303
176 172 167 166 172 174 173 174 168 164 166 169 174 176 174 172 171 172 171 168 170 175 177 176 172 165 152 150 204 200 196 216 230 201 145 132 120 105 97 89 87 83 66 62 61 61 64 60 59 69 75 76 77 75 70 62 53 44 33 24 17 13 9 6 4 2 0 359 356 352 347 340 335 333 332 330 327 324 322 320 317 313 310 308 307
182 184 179 179 187 185 179 179 177 173 173 176 179 177 175 174 173 176 176 172 171 173 179 191 191 178 170 261 248 219 199 208 220 230 200 149 124 96 96 88 79 75 63 59 60 63 63 55 53 64 71 71 70 66 58 50 41 32 23 15 8 2 359 356 353 351 349 348 345 340 335 332 332 334 334 332 329 326 323 322 319 316 314 313 312
190 191 183 184 192 189 184 184 184 181 179 180 181 179 179 178 175 176 175 175 175 174 178 188 185 177 185 241 233 209 204 206 214 222 222 218 223 141 91 94 80 72 68 66 61 61 58 53 56 60 64 65 54 48 43 38 34 27 19 13 7 1 356 352 348 344 340 336 333 329 328 332 335 336 336 335 333 329 325 322 320 319 318 317 315
194 194 186 188 193 191 189 189 186 182 180 181 182 181 181 179 175 173 172 175 180 181 182 182 180 178 177 167 163 185 203 208 212 213 213 219 225 220 166 120 86 74 68 66 61 61 60 58 61 56 48 49 39 35 36 32 27 20 14 9 6 3 359 356 350 342 335 327 323 327 333 337 337 338 340 342 341 337 331 328 326 325 324 323 322
194 194 190 193 195 194 191 189 187 184 184 184 182 181 180 178 174 168 167 173 176 174 171 171 173 170 164 159 165 219 237 231 222 214 210 206 208 213 206 192 111 78 60 57 58 61 67 66 62 50 38 37 34 34 34 29 23 14 8 5 4 5 5 4 357 345 332 327 330 338 340 339 341 344 347 349 348 344 341 339 336 334 331 328 326
191 189 190 192 193 194 192 189 187 187 190 189 186 184 182 180 173 162 162 168 168 162 159 164 165 160 163 187 268 269 285 287 257 226 219 214 212 218 218 206 165 122 27 46 67 66 71 69 55 41 33 29 30 34 32 26 21 14 8 5 3 6 11 11 2 350 340 341 344 343 341 344 348 352 352 353 353 351 350 348 343 338 334 331 328
186 186 189 191 191 195 194 191 189 191 194 192 189 185 180 180 170 157 157 165 167 165 166 166 160 160 227 303 289 287 310 314 290 258 230 223 222 232 242 237 198 191 342 41 91 78 68 63 47 33 27 23 22 26 27 23 20 16 10 7 6 6 12 11 1 354 349 347 345 343 346 352 355 357 357 358 358 356 355 353 348 343 338 336 333
178 182 187 190 191 194 193 190 192 195 193 189 186 180 177 177 170 164 166 171 170 166 170 170 164 178 240 271 307 327 353 335 282 265 255 226 215 229 242 243 226 235 289 338 100 85 67 53 40 26 18 18 18 17 20 20 16 13 10 8 6 4 4 2 356 354 352 349 348 351 357 0 1 1 1 2 2 0 359 357 354 351 347 343 338
173 178 182 186 190 191 189 188 189 191 188 185 186 182 180 181 179 179 180 177 170 162 176 183 183 204 212 220 321 352 15 10 237 215 228 205 199 209 218 220 238 261 256 237 81 77 68 25 24 15 6 8 12 12 13 15 11 10 12 9 4 359 356 359 359 358 358 358 1 7 9 8 6 5 4 5 5 3 0 360 359 356 354 348 342
174 178 178 179 186 188 187 185 183 186 186 186 187 186 187 189 187 186 183 180 174 167 180 191 196 209 204 206 265 240 87 88 85 97 129 152 200 225 244 237 245 259 230 217 233 287 290 9 13 356 343 352 3 7 7 9 6 8 16 12 3 1 4 12 16 13 14 17 19 21 19 16 13 9 8 7 6 4 2 2 1 359 357 352 346
174 177 178 178 183 186 187 184 182 184 186 187 190 189 191 194 193 193 190 185 187 188 190 195 200 204 202 200 206 214 228 181 86 45 91 79 58 263 257 244 241 253 244 231 235 230 76 16 10 329 319 341 354 1 3 2 356 1 20 17 6 9 22 30 32 30 30 32 32 31 28 24 21 15 12 9 6 5 3 2 2 2 360 355 350
173 177 180 181 184 186 187 187 185 185 186 192 196 194 195 199 197 197 198 193 195 204 203 200 204 206 204 200 191 186 166 163 93 359 7 34 22 344 270 238 235 245 235 219 219 207 129 69 321 309 320 335 346 354 359 355 342 347 17 19 9 14 29 35 38 36 37 38 35 33 31 28 26 20 16 11 7 6 4 4 4 4 3 359 353
174 177 179 183 186 187 187 189 191 190 191 197 203 203 203 205 199 195 200 201 203 211 211 207 216 217 205 195 184 162 124 84 353 2 350 330 323 343 299 241 232 229 210 187 192 201 181 190 272 307 321 332 343 351 353 347 330 337 11 18 9 14 25 31 34 31 32 35 33 31 28 25 24 21 17 12 8 6 6 6 7 7 5 2 357
176 177 181 184 186 188 190 194 196 197 199 202 207 210 210 208 202 199 203 207 210 216 214 213 220 214 204 201 199 198 250 306 304 233 259 306 281 297 309 237 219 205 195 191 199 202 200 227 289 300 309 327 338 342 345 344 329 337 9 17 8 9 17 23 28 26 26 29 30 27 24 22 21 18 15 10 7 5 6 8 10 9 6 3 359
180 179 184 185 183 187 195 198 197 202 205 206 210 212 212 211 208 209 209 210 216 218 214 215 214 202 202 205 204 211 268 298 290 261 237 269 275 261 231 204 207 203 202 214 216 214 219 243 284 288 291 317 331 333 337 343 342 351 14 20 11 6 10 17 20 21 21 23 25 24 21 19 18 16 13 9 6 4 6 9 11 10 8 5 1
183 180 186 189 184 185 195 199 197 203 208 211 215 215 217 219 216 216 218 215 218 220 217 218 213 200 199 199 199 207 251 293 290 282 269 285 292 278 256 219 218 221 220 224 231 232 235 245 261 269 277 302 322 326 331 341 351 4 18 19 12 4 3 11 16 17 16 15 18 20 18 16 14 14 11 9 6 3 4 8 11 10 9 6 3
188 185 190 195 195 191 193 198 200 206 214 218 220 220 220 221 222 223 224 221 220 220 219 219 214 203 198 196 197 203 225 270 290 301 311 310 299 283 267 247 245 243 233 228 231 236 242 246 252 259 265 289 314 320 332 347 347 356 10 11 6 1 357 359 8 15 14 10 11 12 12 12 11 10 9 7 5 3 3 6 10 10 9 8 4
193 191 194 197 203 201 197 204 208 210 215 219 222 227 225 222 226 230 231 230 228 225 222 221 217 209 203 202 204 210 230 252 262 263 276 296 294 296 287 275 273 266 252 241 236 241 248 248 250 254 256 280 311 319 333 345 343 346 358 360 354 352 351 347 353 5 8 5 4 3 5 7 6 7 7 5 4 2 2 4 8 9 9 9 5
195 195 197 194 197 201 199 207 216 214 213 218 225 231 231 229 232 238 240 238 235 233 229 227 225 221 215 215 219 223 232 245 249 246 250 255 269 288 293 288 284 280 272 259 246 247 250 245 246 247 247 272 293 299 317 329 334 339 345 347 343 342 344 340 342 353 356 356 356 355 357 0 1 2 2 3 3 3 2 3 6 7 8 9 7
202 203 205 198 196 201 203 209 217 217 216 222 228 231 231 232 234 238 239 239 241 239 234 232 233 237 232 229 230 228 231 243 250 247 250 255 260 270 282 286 285 281 276 266 257 250 240 239 246 243 238 248 260 274 295 310 325 332 333 334 334 335 337 333 334 343 346 347 349 348 348 352 354 355 357 359 1 3 3 1 3 5 6 8 8
212 214 216 213 209 208 209 215 219 217 219 223 228 230 232 233 235 235 233 236 242 241 238 237 237 242 245 242 237 230 229 238 246 250 251 255 261 263 270 281 284 282 275 269 268 261 245 239 240 236 238 249 263 280 294 308 318 318 319 323 325 329 331 327 327 335 338 338 339 341 342 344 347 348 351 354 355 359 2 0 359 2 5 7 8
216 219 222 225 225 221 218 220 220 219 221 224 227 230 232 234 236 237 236 237 241 242 243 246 243 243 247 248 243 237 236 239 243 249 250 251 257 258 263 281 285 280 275 272 271 265 258 259 257 250 255 266 273 281 289 297 302 304 308 313 315 320 323 322 323 328 332 331 331 335 338 339 342 344 346 348 350 354 358 359 357 358 3 7 7
219 220 223 226 230 231 227 224 223 224 226 227 229 231 234 235 236 238 239 240 243 243 242 245 245 247 251 252 248 243 246 250 251 253 251 249 252 253 257 281 290 284 282 284 282 272 261 262 274 277 277 282 284 286 289 290 292 296 299 302 305 310 315 315 317 324 326 325 326 330 334 337 340 342 343 344 346 348 352 356 356 355 359 5 6
224 223 224 226 229 230 229 228 229 231 232 231 230 231 235 238 240 240 241 242 246 247 247 246 245 247 252 257 256 249 248 256 261 261 255 248 248 253 255 260 274 284 289 293 297 289 271 263 271 279 280 285 288 289 290 287 286 288 290 294 298 302 305 306 310 318 320 320 323 327 332 335 337 339 341 342 343 345 348 351 353 352 353 359 3
227 226 224 224 227 229 229 230 232 235 237 235 234 235 236 237 242 245 246 248 249 251 254 255 252 251 254 261 267 265 260 262 264 265 262 251 246 250 254 255 259 266 278 285 291 297 289 274 270 275 278 284 288 287 285 283 284 288 290 292 295 297 299 302 308 315 316 317 319 323 328 331 332 335 338 339 340 342 344 347 348 348 346 348 354
228 228 226 226 229 232 233 233 234 237 239 239 240 241 239 237 240 245 249 253 255 256 258 260 257 255 258 262 268 272 272 271 269 268 269 262 250 248 252 258 262 264 269 276 279 285 290 286 283 287 290 292 292 291 290 292 292 292 292 293 294 298 304 309 314 318 318 317 317 318 322 324 326 329 333 336 337 337 339 342 343 343 342 341 344
232 231 231 232 234 237 239 238 236 237 239 241 242 244 243 240 239 241 245 249 255 258 260 261 260 259 259 261 264 269 271 273 273 271 272 271 263 255 254 257 261 263 265 269 273 276 281 285 288 290 292 293 294 296 300 302 301 297 296 296 298 306 317 320 320 320 319 317 315 316 317 319 322 325 328 331 332 331 334 338 339 338 338 338 339
237 235 235 236 239 242 245 245 242 240 241 242 243 245 246 245 243 243 243 245 250 256 259 261 262 263 264 264 265 266 269 272 274 274 273 272 270 266 264 263 262 261 261 263 268 273 276 280 282 284 285 287 290 293 298 300 302 302 303 304 306 312 318 318 317 316 314 313 313 315 316 316 318 321 324 327 326 327 330 333 335 335 335 336 338
241 241 239 238 240 244 248 249 247 246 245 245 245 247 248 248 249 249 248 248 249 252 258 261 262 263 265 268 269 268 269 272 275 277 278 279 280 282 284 284 279 272 268 267 267 270 273 275 278 281 283 285 287 291 296 298 300 303 307 308 309 311 311 310 309 308 307 307 307 310 313 314 316 319 324 325 324 324 326 329 332 333 332 333 336
241 244 245 245 244 244 246 248 249 249 250 250 248 248 250 252 254 255 255 255 254 254 257 260 262 264 266 268 270 270 271 273 277 281 282 283 288 295 298 299 299 295 291 287 282 279 279 278 280 283 286 288 290 293 298 300 301 306 309 309 309 310 307 301 302 303 303 303 304 305 308 311 313 318 322 324 324 324 325 327 331 332 330 328 331
237 241 245 249 250 249 248 248 248 250 252 254 253 252 253 255 258 260 261 260 260 260 261 262 263 265 267 269 271 273 275 277 279 281 280 278 280 287 292 295 295 294 294 295 295 294 293 291 291 293 291 291 294 296 298 300 302 306 307 304 305 309 305 297 299 304 305 307 307 307 308 311 313 316 320 322 323 324 325 327 330 329 325 322 326
237 239 242 244 247 248 250 249 249 249 251 253 256 258 259 261 264 266 266 266 265 264 264 265 266 268 269 270 272 274 276 278 279 280 281 279 277 277 282 286 289 290 289 288 289 290 291 292 295 298 296 296 299 300 300 302 302 302 301 300 301 304 303 300 303 308 309 310 312 312 314 315 314 315 317 319 323 325 323 324 326 324 320 319 320
237 240 243 245 246 246 248 249 250 250 252 254 256 258 261 265 268 270 271 273 273 271 269 267 266 268 270 271 273 275 276 278 279 281 283 283 282 279 277 279 283 285 286 285 284 285 285 287 292 295 295 297 302 304 304 306 307 306 304 303 300 299 299 299 301 304 306 307 309 310 312 314 314 314 314 318 325 325 320 318 321 320 317 316 316
235 239 244 248 249 248 248 249 249 250 252 255 257 259 260 262 265 268 270 273 275 277 276 273 270 269 269 270 272 274 276 278 280 282 283 283 283 281 278 276 276 278 280 281 281 282 282 283 286 289 291 293 297 301 304 308 311 310 308 305 302 300 297 295 294 296 299 301 303 305 307 310 311 312 313 318 324 323 316 314 319 319 315 311 310
236 240 244 247 249 249 249 249 250 250 252 254 256 258 260 261 262 264 267 269 271 274 276 278 278 275 274 273 273 274 276 278 279 281 282 282 283 282 280 277 274 272 273 274 276 277 278 279 280 282 285 288 290 295 301 305 307 307 307 305 304 302 299 295 292 292 293 295 297 299 302 304 307 308 310 315 320 319 312 309 314 318 314 306 304
239 240 242 244 244 244 245 246 247 249 251 254 256 257 259 260 260 262 266 269 271 273 274 275 277 278 279 278 278 279 279 280 280 281 282 282 282 281 281 278 275 272 270 269 270 271 273 274 276 278 282 285 287 292 298 300 300 302 305 305 304 302 298 294 292 291 290 291 293 294 296 299 302 303 305 311 315 313 310 306 307 312 310 303 300
240 241 241 243 243 240 241 242 244 246 249 252 255 257 258 259 258 258 261 264 267 270 272 273 274 276 277 278 278 278 279 280 281 282 283 283 283 282 280 278 277 276 274 272 272 272 273 274 276 279 282 285 287 290 294 296 296 299 302 302 301 299 295 292 290 288 287 289 290 290 291 295 298 298 300 307 309 307 309 307 305 306 304 298 295
239 241 242 243 244 242 241 241 243 245 247 250 253 256 258 260 259 256 255 257 259 262 265 268 270 271 273 274 275 276 276 276 278 280 282 283 282 281 280 281 281 281 280 281 280 279 279 279 280 281 283 284 286 288 290 292 293 295 296 295 297 297 294 291 289 287 288 291 292 291 291 294 297 297 300 305 306 305 308 309 307 305 302 297 294
244 245 245 245 244 244 244 245 246 247 246 247 250 253 256 258 258 256 253 253 256 259 263 266 268 269 271 271 272 273 273 273 274 277 279 280 279 279 280 281 283 283 284 286 286 286 285 285 286 286 287 287 286 286 286 287 288 290 290 290 294 296 294 292 291 292 294 295 296 295 293 295 301 302 303 305 305 305 307 307 305 302 299 299 298
248 249 249 248 246 245 245 246 248 249 248 247 248 251 253 253 255 255 254 254 257 261 264 267 269 271 272 273 273 273 272 272 272 273 276 277 277 278 279 280 280 281 284 287 288 289 289 289 289 289 290 291 291 289 288 287 287 287 285 286 291 292 289 289 291 294 294 294 297 297 294 297 305 307 305 305 306 306 307 305 302 297 294 298 299
253 254 255 255 253 251 249 248 250 251 250 248 248 250 251 251 252 254 255 257 259 261 265 268 270 271 272 272 273 273 275 275 274 272 273 274 275 277 278 279 279 281 284 288 289 290 290 290 289 290 291 292 293 293 291 288 286 284 282 284 287 285 284 285 288 289 290 292 298 300 295 299 306 307 306 305 303 303 305 304 300 296 292 292 295